| time (UTC) | temp C | wind direction | speed KPH | gust KPH | rain 1hr cm | rain 24hr cm | rain mn cm | humidity % | barometer mb |
| 20260505214245 | 19 | 152 | 1.6 | 9.7 | 0.00 | 0.00 | 0.00 | 66 | 1016.0 |
| 20260505213743 | 18 | 217 | 1.6 | 4.8 | 0.00 | 0.00 | 0.00 | 67 | 1016.1 |
| 20260505213241 | 18 | 256 | 3.2 | 6.4 | 0.00 | 0.00 | 0.00 | 64 | 1016.1 |
| 20260505212742 | 18 | 218 | 1.6 | 6.4 | 0.00 | 0.00 | 0.00 | 67 | 1016.1 |
| 20260505212242 | 18 | 258 | 1.6 | 4.8 | 0.00 | 0.00 | 0.00 | 64 | 1016.1 |
| 20260505212234 | 18 | 355 | 1.6 | 6.4 | 0.00 | 0.00 | 0.00 | 66 | 1016.1 |
| 20260505211733 | 18 | 355 | 1.6 | 6.4 | 0.00 | 0.00 | 0.00 | 67 | 1016.2 |
| 20260505210741 | 17 | 111 | 1.6 | 6.4 | 0.00 | 0.00 | 0.00 | 66 | 1016.1 |
| 20260505210241 | 17 | 278 | 3.2 | 4.8 | 0.00 | 0.00 | 0.00 | 67 | 1016.2 |
| 20260505205741 | 17 | 303 | 3.2 | 6.4 | 0.00 | 0.00 | 0.00 | 68 | 1016.3 |
| 20260505205241 | 17 | 320 | 3.2 | 6.4 | 0.00 | 0.00 | 0.00 | 70 | 1016.3 |
| 20260505204742 | 17 | 268 | 3.2 | 6.4 | 0.00 | 0.00 | 0.00 | 67 | 1016.3 |
| 20260505204243 | 17 | 126 | 1.6 | 4.8 | 0.00 | 0.00 | 0.00 | 67 | 1016.3 |
| 20260505203738 | 17 | 309 | 0.0 | 3.2 | 0.00 | 0.00 | 0.00 | 69 | 1016.3 |
| 20260505203231 | 17 | 309 | 0.0 | 0.0 | 0.00 | 0.00 | 0.00 | 68 | 1016.4 |
| 20260505202726 | 17 | 307 | 0.0 | 0.0 | 0.00 | 0.00 | 0.00 | 69 | 1016.4 |
| 20260505202219 | 17 | 307 | 0.0 | 0.0 | 0.00 | 0.00 | 0.00 | 68 | 1016.4 |
| 20260505201714 | 16 | 308 | 0.0 | 0.0 | 0.00 | 0.00 | 0.00 | 71 | 1016.5 |
| 20260505201207 | 16 | 348 | 0.0 | 0.0 | 0.00 | 0.00 | 0.00 | 70 | 1016.6 |
| 20260505200701 | 16 | 351 | 0.0 | 0.0 | 0.00 | 0.00 | 0.00 | 69 | 1016.5 |
| 20260505200156 | 16 | 351 | 0.0 | 0.0 | 0.00 | 0.00 | 0.00 | 70 | 1016.5 |
| 20260505195649 | 16 | 310 | 0.0 | 0.0 | 0.00 | 0.00 | 0.00 | 70 | 1016.5 |
| 20260505195404 | 16 | 309 | 0.0 | 0.0 | 0.00 | 0.00 | 0.00 | 69 | 1016.5 |
| 20260505194638 | 16 | 331 | 0.0 | 0.0 | 0.00 | 0.00 | 0.00 | 70 | 1016.6 |
| 20260505194131 | 16 | 348 | 0.0 | 0.0 | 0.00 | 0.00 | 0.00 | 71 | 1016.5 |
| 20260505193626 | 16 | 355 | 0.0 | 0.0 | 0.00 | 0.00 | 0.00 | 71 | 1016.5 |
| 20260505193120 | 16 | 223 | 0.0 | 0.0 | 0.00 | 0.00 | 0.00 | 69 | 1016.6 |
| 20260505192837 | 16 | 112 | 0.0 | 0.0 | 0.00 | 0.00 | 0.00 | 68 | 1016.7 |
| 20260505192327 | 16 | 330 | 0.0 | 0.0 | 0.00 | 0.00 | 0.00 | 69 | 1016.8 |
| 20260505191602 | 16 | 109 | 0.0 | 1.6 | 0.00 | 0.00 | 0.00 | 69 | 1016.7 |
| 20260505191100 | 16 | 282 | 1.6 | 4.8 | 0.00 | 0.00 | 0.00 | 72 | 1016.7 |
| 20260505190557 | 16 | 284 | 1.6 | 4.8 | 0.00 | 0.00 | 0.00 | 70 | 1016.6 |
| 20260505190057 | 16 | 227 | 1.6 | 4.8 | 0.00 | 0.00 | 0.00 | 70 | 1016.6 |
| 20260505185557 | 16 | 80 | 1.6 | 6.4 | 0.00 | 0.00 | 0.00 | 71 | 1016.6 |
| 20260505185056 | 16 | 127 | 1.6 | 6.4 | 0.00 | 0.00 | 0.00 | 71 | 1016.6 |
| 20260505184557 | 16 | 339 | 3.2 | 4.8 | 0.00 | 0.00 | 0.00 | 70 | 1016.6 |
| 20260505184056 | 16 | 10 | 1.6 | 12.9 | 0.00 | 0.00 | 0.00 | 71 | 1016.5 |
| 20260505183555 | 16 | 101 | 1.6 | 12.9 | 0.00 | 0.00 | 0.00 | 69 | 1016.5 |
| 20260505183056 | 16 | 258 | 1.6 | 8.0 | 0.00 | 0.00 | 0.00 | 71 | 1016.5 |
| 20260505182554 | 16 | 205 | 3.2 | 8.0 | 0.00 | 0.00 | 0.00 | 70 | 1016.5 |
| 20260505182056 | 15 | 211 | 3.2 | 9.7 | 0.00 | 0.00 | 0.00 | 70 | 1016.4 |
| 20260505181553 | 15 | 237 | 3.2 | 9.7 | 0.00 | 0.00 | 0.00 | 69 | 1016.4 |
| 20260505181054 | 15 | 205 | 1.6 | 4.8 | 0.00 | 0.00 | 0.00 | 71 | 1016.4 |
| 20260505180554 | 15 | 185 | 1.6 | 4.8 | 0.00 | 0.00 | 0.00 | 70 | 1016.4 |
| 20260505180052 | 15 | 169 | 3.2 | 9.7 | 0.00 | 0.00 | 0.00 | 72 | 1016.4 |
| 20260505175553 | 15 | 211 | 4.8 | 9.7 | 0.00 | 0.00 | 0.00 | 71 | 1016.4 |
| 20260505175054 | 15 | 219 | 1.6 | 9.7 | 0.00 | 0.00 | 0.00 | 72 | 1016.4 |
| 20260505174548 | 15 | 202 | 1.6 | 9.7 | 0.00 | 0.00 | 0.00 | 72 | 1016.3 |
| 20260505174042 | 15 | 225 | 3.2 | 9.7 | 0.00 | 0.00 | 0.00 | 70 | 1016.3 |
| 20260505173536 | 15 | 180 | 3.2 | 8.0 | 0.00 | 0.00 | 0.00 | 72 | 1016.3 |
| 20260505173037 | 15 | 253 | 4.8 | 8.0 | 0.00 | 0.00 | 0.00 | 72 | 1016.3 |
| 20260505172536 | 14 | 192 | 3.2 | 8.0 | 0.00 | 0.00 | 0.00 | 73 | 1016.3 |
| 20260505172036 | 14 | 229 | 3.2 | 8.0 | 0.00 | 0.00 | 0.00 | 75 | 1016.3 |
| 20260505171536 | 14 | 350 | 3.2 | 9.7 | 0.00 | 0.00 | 0.00 | 73 | 1016.2 |
| 20260505171034 | 14 | 227 | 4.8 | 11.3 | 0.00 | 0.00 | 0.00 | 74 | 1016.2 |
| 20260505170535 | 14 | 211 | 3.2 | 11.3 | 0.00 | 0.00 | 0.00 | 74 | 1016.2 |
| 20260505170036 | 13 | 198 | 1.6 | 6.4 | 0.00 | 0.00 | 0.00 | 75 | 1016.2 |
| 20260505165536 | 13 | 153 | 3.2 | 9.7 | 0.00 | 0.00 | 0.00 | 74 | 1016.2 |
| 20260505165036 | 13 | 188 | 4.8 | 11.3 | 0.00 | 0.00 | 0.00 | 75 | 1016.3 |
| 20260505164535 | 13 | 185 | 4.8 | 11.3 | 0.00 | 0.00 | 0.00 | 75 | 1016.3 |
| 20260505164256 | 13 | 201 | 3.2 | 9.7 | 0.00 | 0.00 | 0.00 | 74 | 1016.3 |
| 20260505163535 | 13 | 194 | 3.2 | 9.7 | 0.00 | 0.00 | 0.00 | 75 | 1016.3 |
| 20260505163036 | 13 | 202 | 6.4 | 9.7 | 0.00 | 0.00 | 0.00 | 75 | 1016.3 |
| 20260505162536 | 13 | 177 | 6.4 | 12.9 | 0.00 | 0.00 | 0.00 | 74 | 1016.2 |
| 20260505162030 | 13 | 177 | 6.4 | 12.9 | 0.00 | 0.00 | 0.00 | 74 | 1016.2 |
| 20260505161531 | 13 | 171 | 4.8 | 11.3 | 0.00 | 0.00 | 0.00 | 75 | 1016.2 |
| 20260505161032 | 13 | 175 | 4.8 | 9.7 | 0.00 | 0.00 | 0.00 | 75 | 1016.2 |
| 20260505160532 | 13 | 161 | 3.2 | 9.7 | 0.00 | 0.00 | 0.00 | 76 | 1016.2 |
| 20260505153027 | 12 | 175 | 3.2 | 9.7 | 0.00 | 0.00 | 0.00 | 76 | 1016.3 |
| 20260505152528 | 12 | 190 | 3.2 | 8.0 | 0.00 | 0.00 | 0.00 | 76 | 1016.2 |
| 20260505152027 | 12 | 197 | 3.2 | 8.0 | 0.00 | 0.00 | 0.00 | 76 | 1016.2 |
| 20260505151526 | 12 | 225 | 3.2 | 8.0 | 0.00 | 0.00 | 0.00 | 76 | 1016.1 |
| 20260505151027 | 12 | 162 | 1.6 | 8.0 | 0.00 | 0.00 | 0.00 | 76 | 1016.2 |
| 20260505150526 | 12 | 160 | 0.0 | 6.4 | 0.00 | 0.00 | 0.00 | 77 | 1016.2 |
| 20260505140520 | 12 | 156 | 3.2 | 6.4 | 0.00 | 0.00 | 0.00 | 79 | 1015.8 |
| 20260505125006 | 12 | 163 | 0.0 | 0.0 | 0.00 | 0.00 | 0.00 | 82 | 1015.5 |
| 20260505124945 | 12 | 163 | 0.0 | 0.0 | 0.00 | 0.00 | 0.00 | 81 | 1015.4 |
| 20260505124003 | 12 | 163 | 0.0 | 0.0 | 0.00 | 0.00 | 0.00 | 81 | 1015.4 |
| 20260505123503 | 12 | 163 | 0.0 | 0.0 | 0.00 | 0.00 | 0.00 | 81 | 1015.3 |
| 20260505123459 | 12 | 163 | 0.0 | 0.0 | 0.00 | 0.00 | 0.00 | 80 | 1015.3 |
| 20260505122458 | 12 | 163 | 0.0 | 0.0 | 0.00 | 0.00 | 0.00 | 80 | 1015.3 |
| 20260505122437 | 12 | 163 | 0.0 | 0.0 | 0.00 | 0.00 | 0.00 | 80 | 1015.3 |
| 20260505121454 | 12 | 163 | 0.0 | 0.0 | 0.00 | 0.00 | 0.00 | 80 | 1015.3 |
| 20260505120954 | 12 | 163 | 0.0 | 0.0 | 0.00 | 0.00 | 0.00 | 80 | 1015.3 |
| 20260505120455 | 12 | 163 | 0.0 | 0.0 | 0.00 | 0.00 | 0.00 | 80 | 1015.3 |
| 20260505115952 | 12 | 163 | 0.0 | 3.2 | 0.00 | 0.00 | 0.00 | 80 | 1015.2 |
| 20260505115714 | 12 | 163 | 0.0 | 3.2 | 0.00 | 0.00 | 0.00 | 80 | 1015.2 |
| 20260505114946 | 12 | 163 | 1.6 | 3.2 | 0.00 | 0.00 | 0.00 | 80 | 1015.2 |
| 20260505114445 | 12 | 163 | 1.6 | 3.2 | 0.00 | 0.00 | 0.00 | 80 | 1015.2 |
| 20260505113942 | 12 | 163 | 0.0 | 3.2 | 0.00 | 0.00 | 0.00 | 80 | 1015.1 |
| 20260505113711 | 12 | 163 | 1.6 | 3.2 | 0.00 | 0.00 | 0.00 | 80 | 1015.1 |
| 20260505112943 | 12 | 163 | 1.6 | 3.2 | 0.00 | 0.00 | 0.00 | 80 | 1015.2 |
| 20260505112443 | 12 | 163 | 1.6 | 6.4 | 0.00 | 0.00 | 0.00 | 80 | 1015.3 |
| 20260505111941 | 12 | 163 | 1.6 | 6.4 | 0.00 | 0.00 | 0.00 | 80 | 1015.3 |
| 20260505111438 | 12 | 159 | 0.0 | 3.2 | 0.00 | 0.00 | 0.00 | 81 | 1015.3 |
| 20260505110938 | 12 | 159 | 0.0 | 3.2 | 0.00 | 0.00 | 0.00 | 80 | 1015.3 |
| 20260505110704 | 12 | 159 | 0.0 | 3.2 | 0.00 | 0.00 | 0.00 | 80 | 1015.2 |
| 20260505101927 | 12 | 202 | 3.2 | 8.0 | 0.00 | 0.00 | 0.00 | 80 | 1014.9 |
| 20260505101426 | 12 | 152 | 4.8 | 8.0 | 0.00 | 0.00 | 0.00 | 80 | 1014.9 |
| 20260505100926 | 12 | 216 | 4.8 | 8.0 | 0.00 | 0.00 | 0.00 | 80 | 1014.9 |
| 20260505100426 | 12 | 209 | 4.8 | 8.0 | 0.00 | 0.00 | 0.00 | 79 | 1014.9 |
| 20260505095922 | 12 | 191 | 4.8 | 8.0 | 0.00 | 0.00 | 0.00 | 79 | 1014.8 |
| 20260505095423 | 12 | 183 | 4.8 | 12.9 | 0.00 | 0.00 | 0.00 | 80 | 1014.7 |
| 20260505094924 | 12 | 169 | 3.2 | 12.9 | 0.00 | 0.00 | 0.00 | 80 | 1014.7 |
| 20260505094422 | 12 | 190 | 3.2 | 6.4 | 0.00 | 0.00 | 0.00 | 80 | 1014.7 |
| 20260505093922 | 12 | 171 | 3.2 | 14.5 | 0.00 | 0.00 | 0.00 | 80 | 1014.7 |
| 20260505093640 | 12 | 218 | 3.2 | 14.5 | 0.00 | 0.00 | 0.00 | 80 | 1014.7 |
| 20260505092922 | 12 | 229 | 3.2 | 8.0 | 0.00 | 0.00 | 0.00 | 80 | 1014.7 |
| 20260505092643 | 12 | 200 | 3.2 | 8.0 | 0.00 | 0.00 | 0.00 | 80 | 1014.7 |
| 20260505092139 | 12 | 236 | 4.8 | 9.7 | 0.00 | 0.00 | 0.00 | 80 | 1014.7 |
| 20260505091423 | 12 | 222 | 6.4 | 11.3 | 0.00 | 0.00 | 0.00 | 79 | 1014.6 |
| 20260505090924 | 12 | 225 | 6.4 | 14.5 | 0.00 | 0.00 | 0.00 | 79 | 1014.6 |
| 20260505090422 | 12 | 160 | 6.4 | 14.5 | 0.00 | 0.00 | 0.00 | 79 | 1014.6 |
| 20260505090153 | 12 | 196 | 6.4 | 11.3 | 0.00 | 0.00 | 0.00 | 80 | 1014.6 |
| 20260505085911 | 12 | 211 | 6.4 | 11.3 | 0.00 | 0.00 | 0.00 | 80 | 1014.6 |
| 20260505085411 | 12 | 190 | 6.4 | 11.3 | 0.00 | 0.00 | 0.00 | 80 | 1014.6 |
| 20260505084421 | 12 | 153 | 6.4 | 12.9 | 0.00 | 0.00 | 0.00 | 80 | 1014.6 |
| 20260505083921 | 12 | 171 | 6.4 | 14.5 | 0.00 | 0.00 | 0.00 | 80 | 1014.6 |
| 20260505083420 | 12 | 209 | 6.4 | 14.5 | 0.00 | 0.00 | 0.00 | 80 | 1014.5 |
| 20260505082921 | 12 | 218 | 4.8 | 8.0 | 0.00 | 0.00 | 0.00 | 80 | 1014.6 |
| 20260505082422 | 12 | 213 | 3.2 | 8.0 | 0.00 | 0.00 | 0.00 | 80 | 1014.6 |
| 20260505081921 | 12 | 169 | 4.8 | 11.3 | 0.00 | 0.00 | 0.00 | 80 | 1014.6 |
| 20260505081423 | 12 | 213 | 4.8 | 11.3 | 0.00 | 0.00 | 0.00 | 80 | 1014.6 |
| 20260505080921 | 12 | 158 | 3.2 | 6.4 | 0.00 | 0.00 | 0.00 | 80 | 1014.7 |
| 20260505080420 | 12 | 194 | 3.2 | 12.9 | 0.00 | 0.00 | 0.00 | 80 | 1014.6 |
| 20260505075919 | 12 | 135 | 4.8 | 12.9 | 0.00 | 0.00 | 0.00 | 80 | 1014.6 |
| 20260505075421 | 12 | 172 | 4.8 | 9.7 | 0.00 | 0.00 | 0.00 | 80 | 1014.6 |
| 20260505075137 | 12 | 201 | 4.8 | 9.7 | 0.00 | 0.00 | 0.00 | 80 | 1014.7 |
| 20260505074421 | 12 | 207 | 4.8 | 11.3 | 0.00 | 0.00 | 0.00 | 79 | 1014.5 |
| 20260505074147 | 12 | 155 | 4.8 | 16.1 | 0.00 | 0.00 | 0.00 | 79 | 1014.5 |
| 20260505073652 | 12 | 153 | 4.8 | 16.1 | 0.00 | 0.00 | 0.00 | 79 | 1014.5 |
| 20260505072921 | 12 | 207 | 3.2 | 6.4 | 0.00 | 0.00 | 0.00 | 79 | 1014.5 |
| 20260505072642 | 12 | 140 | 4.8 | 12.9 | 0.00 | 0.00 | 0.00 | 79 | 1014.4 |
| 20260505071920 | 12 | 135 | 4.8 | 12.9 | 0.00 | 0.00 | 0.00 | 80 | 1014.4 |
| 20260505071421 | 12 | 182 | 3.2 | 12.9 | 0.00 | 0.00 | 0.00 | 80 | 1014.4 |
| 20260505071139 | 12 | 159 | 1.6 | 8.0 | 0.00 | 0.00 | 0.00 | 80 | 1014.4 |
| 20260505070643 | 12 | 164 | 1.6 | 3.2 | 0.00 | 0.00 | 0.00 | 80 | 1014.4 |
| 20260505065917 | 12 | 164 | 1.6 | 6.4 | 0.00 | 0.00 | 0.00 | 80 | 1014.4 |
| 20260505065418 | 12 | 164 | 3.2 | 8.0 | 0.00 | 0.00 | 0.00 | 80 | 1014.4 |
| 20260505064917 | 12 | 209 | 4.8 | 8.0 | 0.00 | 0.00 | 0.00 | 80 | 1014.4 |
| 20260505064416 | 12 | 167 | 4.8 | 8.0 | 0.00 | 0.00 | 0.00 | 80 | 1014.4 |
| 20260505063913 | 12 | 188 | 3.2 | 8.0 | 0.00 | 0.00 | 0.00 | 79 | 1014.4 |
| 20260505063413 | 12 | 197 | 1.6 | 8.0 | 0.00 | 0.00 | 0.00 | 79 | 1014.4 |
| 20260505062912 | 12 | 219 | 1.6 | 6.4 | 0.00 | 0.00 | 0.00 | 79 | 1014.4 |
| 20260505062414 | 12 | 206 | 3.2 | 14.5 | 0.00 | 0.00 | 0.00 | 79 | 1014.3 |
| 20260505061907 | 12 | 209 | 3.2 | 14.5 | 0.00 | 0.00 | 0.00 | 79 | 1014.3 |
| 20260505061401 | 12 | 186 | 0.0 | 6.4 | 0.00 | 0.00 | 0.00 | 79 | 1014.3 |
| 20260505060855 | 12 | 346 | 0.0 | 1.6 | 0.00 | 0.00 | 0.00 | 80 | 1014.3 |
| 20260505060349 | 12 | 346 | 0.0 | 1.6 | 0.00 | 0.00 | 0.00 | 80 | 1014.3 |
| 20260505055843 | 12 | 346 | 0.0 | 3.2 | 0.00 | 0.00 | 0.00 | 79 | 1014.4 |
| 20260505055338 | 12 | 346 | 0.0 | 3.2 | 0.00 | 0.00 | 0.00 | 79 | 1014.3 |
| 20260505054831 | 12 | 346 | 0.0 | 3.2 | 0.00 | 0.00 | 0.00 | 80 | 1014.3 |
| 20260505054325 | 12 | 346 | 1.6 | 4.8 | 0.00 | 0.00 | 0.00 | 80 | 1014.3 |
| 20260505053820 | 12 | 346 | 1.6 | 4.8 | 0.00 | 0.00 | 0.00 | 79 | 1014.4 |
| 20260505053313 | 12 | 346 | 1.6 | 4.8 | 0.00 | 0.00 | 0.00 | 79 | 1014.3 |
| 20260505052807 | 12 | 346 | 1.6 | 6.4 | 0.00 | 0.00 | 0.00 | 79 | 1014.3 |
| 20260505052301 | 12 | 346 | 1.6 | 6.4 | 0.00 | 0.00 | 0.00 | 79 | 1014.2 |
| 20260505051754 | 12 | 109 | 1.6 | 4.8 | 0.00 | 0.00 | 0.00 | 79 | 1014.2 |
| 20260505051249 | 12 | 86 | 0.0 | 3.2 | 0.00 | 0.00 | 0.00 | 79 | 1014.2 |
| 20260505050743 | 12 | 84 | 0.0 | 3.2 | 0.00 | 0.00 | 0.00 | 78 | 1014.2 |
| 20260505050237 | 12 | 84 | 1.6 | 3.2 | 0.00 | 0.00 | 0.00 | 78 | 1014.1 |
| 20260505041643 | 13 | 64 | 1.6 | 3.2 | 0.00 | 0.00 | 0.00 | 75 | 1013.5 |
| 20260505041137 | 13 | 65 | 0.0 | 4.8 | 0.00 | 0.00 | 0.00 | 75 | 1013.4 |
| 20260505040631 | 13 | 65 | 0.0 | 4.8 | 0.00 | 0.00 | 0.00 | 74 | 1013.4 |
| 20260505040346 | 13 | 306 | 1.6 | 4.8 | 0.00 | 0.00 | 0.00 | 74 | 1013.3 |
| 20260505035618 | 13 | 306 | 1.6 | 4.8 | 0.00 | 0.00 | 0.00 | 74 | 1013.2 |
| 20260505035113 | 13 | 207 | 0.0 | 4.8 | 0.00 | 0.00 | 0.00 | 74 | 1013.2 |
| 20260505034607 | 14 | 207 | 0.0 | 4.8 | 0.00 | 0.00 | 0.00 | 74 | 1013.1 |
| 20260505034101 | 14 | 250 | 1.6 | 4.8 | 0.00 | 0.00 | 0.00 | 73 | 1013.0 |
| 20260505033815 | 14 | 194 | 1.6 | 3.2 | 0.00 | 0.00 | 0.00 | 72 | 1012.8 |
| 20260505033050 | 14 | 189 | 1.6 | 3.2 | 0.00 | 0.00 | 0.00 | 72 | 1012.7 |
| 20260505032550 | 14 | 189 | 1.6 | 3.2 | 0.00 | 0.00 | 0.00 | 72 | 1012.7 |
| 20260505032051 | 15 | 189 | 1.6 | 3.2 | 0.00 | 0.00 | 0.00 | 71 | 1012.6 |
| 20260505031549 | 15 | 189 | 1.6 | 3.2 | 0.00 | 0.00 | 0.00 | 71 | 1012.5 |
| 20260505031048 | 15 | 190 | 0.0 | 3.2 | 0.00 | 0.00 | 0.00 | 71 | 1012.4 |
| 20260505030820 | 15 | 190 | 0.0 | 0.0 | 0.00 | 0.00 | 0.00 | 71 | 1012.4 |
| 20260505030047 | 15 | 205 | 0.0 | 3.2 | 0.00 | 0.00 | 0.00 | 70 | 1012.4 |
| 20260505025545 | 15 | 138 | 0.0 | 3.2 | 0.00 | 0.00 | 0.00 | 69 | 1012.2 |
| 20260505025046 | 15 | 136 | 1.6 | 4.8 | 0.00 | 0.00 | 0.00 | 69 | 1012.2 |
| 20260505024544 | 15 | 136 | 1.6 | 4.8 | 0.00 | 0.00 | 0.00 | 69 | 1012.2 |
| 20260505024044 | 16 | 128 | 1.6 | 4.8 | 0.00 | 0.00 | 0.00 | 69 | 1012.1 |
| 20260505023546 | 16 | 300 | 1.6 | 4.8 | 0.00 | 0.00 | 0.00 | 68 | 1012.1 |
| 20260505023042 | 16 | 308 | 1.6 | 8.0 | 0.00 | 0.00 | 0.00 | 68 | 1012.0 |
| 20260505022541 | 16 | 260 | 3.2 | 8.0 | 0.00 | 0.00 | 0.00 | 67 | 1011.8 |
| 20260505022042 | 16 | 5 | 3.2 | 8.0 | 0.00 | 0.00 | 0.00 | 67 | 1011.8 |
| 20260505021540 | 16 | 42 | 4.8 | 8.0 | 0.00 | 0.00 | 0.00 | 67 | 1011.8 |
| 20260505021040 | 16 | 9 | 4.8 | 8.0 | 0.00 | 0.00 | 0.00 | 66 | 1011.8 |
| 20260505020540 | 17 | 27 | 6.4 | 11.3 | 0.00 | 0.00 | 0.00 | 66 | 1011.7 |
| 20260505020041 | 17 | 18 | 4.8 | 11.3 | 0.00 | 0.00 | 0.00 | 65 | 1011.7 |
| 20260505015535 | 17 | 355 | 3.2 | 9.7 | 0.00 | 0.00 | 0.00 | 63 | 1011.8 |
| 20260505015029 | 18 | 338 | 4.8 | 9.7 | 0.00 | 0.00 | 0.00 | 63 | 1011.8 |
| 20260505014526 | 18 | 5 | 4.8 | 9.7 | 0.00 | 0.00 | 0.00 | 62 | 1011.8 |
| 20260505014249 | 18 | 349 | 4.8 | 9.7 | 0.00 | 0.00 | 0.00 | 61 | 1011.8 |
| 20260505013527 | 19 | 0 | 4.8 | 9.7 | 0.00 | 0.00 | 0.00 | 60 | 1011.8 |
| 20260505013027 | 20 | 355 | 3.2 | 8.0 | 0.00 | 0.00 | 0.00 | 58 | 1011.8 |
| 20260505012746 | 20 | 0 | 3.2 | 8.0 | 0.00 | 0.00 | 0.00 | 58 | 1011.9 |
| 20260505012026 | 20 | 345 | 3.2 | 9.7 | 0.00 | 0.00 | 0.00 | 58 | 1011.9 |
| 20260505011752 | 20 | 39 | 4.8 | 9.7 | 0.00 | 0.00 | 0.00 | 57 | 1011.8 |
| 20260505011026 | 20 | 11 | 3.2 | 8.0 | 0.00 | 0.00 | 0.00 | 59 | 1011.9 |
| 20260505010527 | 20 | 11 | 3.2 | 8.0 | 0.00 | 0.00 | 0.00 | 57 | 1011.9 |
| 20260505010251 | 20 | 26 | 3.2 | 8.0 | 0.00 | 0.00 | 0.00 | 57 | 1011.9 |
| 20260505005526 | 20 | 249 | 3.2 | 12.9 | 0.00 | 0.00 | 0.00 | 58 | 1011.9 |
| 20260505005027 | 20 | 209 | 6.4 | 16.1 | 0.00 | 0.00 | 0.00 | 58 | 1011.9 |
| 20260505004522 | 20 | 151 | 6.4 | 16.1 | 0.00 | 0.00 | 0.00 | 58 | 1012.0 |
| 20260505004022 | 21 | 196 | 4.8 | 12.9 | 0.00 | 0.00 | 0.00 | 55 | 1011.9 |
| 20260505003523 | 21 | 227 | 6.4 | 14.5 | 0.00 | 0.00 | 0.00 | 59 | 1011.9 |
| 20260505003022 | 21 | 245 | 6.4 | 16.1 | 0.00 | 0.00 | 0.00 | 56 | 1012.0 |
| 20260505002522 | 21 | 208 | 6.4 | 16.1 | 0.00 | 0.00 | 0.00 | 56 | 1011.9 |
| 20260505002245 | 21 | 201 | 6.4 | 16.1 | 0.00 | 0.00 | 0.00 | 57 | 1011.9 |
| 20260505001525 | 21 | 197 | 8.0 | 14.5 | 0.00 | 0.00 | 0.00 | 57 | 1011.9 |
| 20260505001023 | 22 | 204 | 6.4 | 16.1 | 0.00 | 0.00 | 0.00 | 55 | 1011.8 |
| 20260505000525 | 22 | 210 | 6.4 | 16.1 | 0.00 | 0.00 | 0.00 | 54 | 1011.8 |
| 20260505000021 | 22 | 202 | 6.4 | 16.1 | 0.00 | 0.00 | 0.00 | 55 | 1011.8 |
| 20260504235523 | 22 | 224 | 4.8 | 12.9 | 0.00 | 0.00 | 0.00 | 55 | 1011.8 |
| 20260504235023 | 22 | 144 | 6.4 | 12.9 | 0.00 | 0.00 | 0.00 | 56 | 1011.7 |
| 20260504234748 | 22 | 199 | 6.4 | 11.3 | 0.00 | 0.00 | 0.00 | 60 | 1011.7 |
| 20260504234023 | 22 | 167 | 8.0 | 17.7 | 0.00 | 0.00 | 0.00 | 58 | 1011.7 |
| 20260504233523 | 22 | 198 | 8.0 | 17.7 | 0.00 | 0.00 | 0.00 | 55 | 1011.7 |
| 20260504233021 | 22 | 217 | 8.0 | 14.5 | 0.00 | 0.00 | 0.00 | 55 | 1011.7 |
| 20260504232522 | 22 | 200 | 9.7 | 17.7 | 0.00 | 0.00 | 0.00 | 55 | 1011.7 |
| 20260504232022 | 22 | 225 | 9.7 | 17.7 | 0.00 | 0.00 | 0.00 | 57 | 1011.7 |
| 20260504231521 | 22 | 208 | 9.7 | 17.7 | 0.00 | 0.00 | 0.00 | 57 | 1011.8 |
| 20260504231018 | 22 | 151 | 8.0 | 16.1 | 0.00 | 0.00 | 0.00 | 54 | 1011.9 |
| 20260504230519 | 22 | 178 | 6.4 | 14.5 | 0.00 | 0.00 | 0.00 | 57 | 1011.9 |
| 20260504230016 | 22 | 186 | 6.4 | 14.5 | 0.00 | 0.00 | 0.00 | 54 | 1012.0 |
| 20260504225515 | 22 | 205 | 6.4 | 16.1 | 0.00 | 0.00 | 0.00 | 54 | 1012.1 |
| 20260504225017 | 22 | 193 | 8.0 | 16.1 | 0.00 | 0.00 | 0.00 | 56 | 1012.1 |
| 20260504224516 | 22 | 182 | 8.0 | 16.1 | 0.00 | 0.00 | 0.00 | 55 | 1012.2 |
| 20260504224013 | 22 | 228 | 9.7 | 19.3 | 0.00 | 0.00 | 0.00 | 54 | 1012.2 |
| 20260504223511 | 22 | 167 | 6.4 | 19.3 | 0.00 | 0.00 | 0.00 | 59 | 1012.4 |
| 20260504223013 | 22 | 186 | 6.4 | 12.9 | 0.00 | 0.00 | 0.00 | 55 | 1012.4 |
| 20260504222514 | 22 | 244 | 6.4 | 14.5 | 0.00 | 0.00 | 0.00 | 53 | 1012.4 |
| 20260504222238 | 22 | 177 | 6.4 | 14.5 | 0.00 | 0.00 | 0.00 | 54 | 1012.5 |
| 20260504221512 | 22 | 184 | 4.8 | 14.5 | 0.00 | 0.00 | 0.00 | 55 | 1012.6 |
| 20260504221009 | 22 | 205 | 6.4 | 14.5 | 0.00 | 0.00 | 0.00 | 54 | 1012.7 |
| 20260504220510 | 22 | 217 | 6.4 | 14.5 | 0.00 | 0.00 | 0.00 | 56 | 1012.7 |
| 20260504220010 | 21 | 200 | 6.4 | 14.5 | 0.00 | 0.00 | 0.00 | 55 | 1012.7 |
| 20260504215510 | 21 | 219 | 6.4 | 14.5 | 0.00 | 0.00 | 0.00 | 57 | 1012.8 |
| 20260504215237 | 21 | 173 | 8.0 | 16.1 | 0.00 | 0.00 | 0.00 | 56 | 1012.8 |
| 20260504214725 | 21 | 186 | 6.4 | 16.1 | 0.00 | 0.00 | 0.00 | 59 | 1012.8 |